Location: Unspecified
(42.3650°N, 71.1030°W)
Time: 15:28:54
(UTC+00:00)

Tiros 1 - Pass Details

Date: 28 June 2024
Orbit: 624 x 656 km, 48.4° (Epoch: 13 July)

Event Time Altitude Azimuth Distance (km) Brightness Sun altitude
Rises 07:38:27 0° 296° (WNW) 2,911 10.4 -13.5°
Reaches altitude 10° 07:40:46 10° 297° (WNW) 2,005 9.5 -13.2°
Maximum altitude 07:45:23 89° 19° (NNE) 636 7.1 -12.7°
Drops below altitude 10° 07:50:03 10° 118° (ESE) 2,017 9.9 -12.1°
Sets 07:52:22 0° 118° (ESE) 2,928 10.7 -11.8°
